CW8014 Weather Reports


time (UTC)temp
C
wind
direction
speed
KPH
gust
KPH
rain 1hr
cm
rain 24hr
cm
rain mn
cm
humidity
%
barometer
mb
20260502195410 15 31 3.2 8.0 0.00 0.00 0.00 87 1014.4
20260502194410 15 351 3.2 8.0 0.00 0.00 0.00 86 1014.3
20260502193411 16 360 3.2 6.4 0.00 0.00 0.00 85 1014.2
20260502192410 16 11 3.2 8.0 0.00 0.00 0.00 84 1014.2
20260502191411 16 30 4.8 8.0 0.00 0.00 0.00 84 1014.1
20260502190410 17 346 6.4 12.9 0.00 0.00 0.00 82 1014.1
20260502185410 17 360 6.4 9.7 0.00 0.00 0.00 81 1013.9
20260502184414 18 14 6.4 12.9 0.00 0.00 0.00 79 1013.9
20260502182411 20 337 6.4 14.5 0.00 0.00 0.00 72 1013.8
20260502181411 21 336 11.3 19.3 0.00 0.00 0.00 67 1013.9
20260502180411 21 290 3.2 4.8 0.00 0.00 0.00 62 1013.8
20260502170410 23 281 6.4 17.7 0.00 0.00 0.00 57 1014.0
20260502162410 23 260 4.8 12.9 0.00 0.00 0.00 56 1014.3
20260502151410 24 281 8.0 17.7 0.00 0.00 0.00 48 1014.8
20260502150410 24 267 9.7 17.7 0.00 0.00 0.00 47 1014.8
20260502130401 25 298 8.0 17.7 0.00 0.00 0.00 45 1015.4
20260502123401 26 213 12.9 30.6 0.00 0.00 0.00 43 1015.8
20260502122401 26 229 11.3 22.5 0.00 0.00 0.00 40 1015.8
20260502120409 26 228 9.7 24.1 0.00 0.00 0.00 37 1016.4
20260502115406 26 148 11.3 22.5 0.00 0.00 0.00 37 1016.5
20260502111406 25 241 6.4 16.1 0.00 0.00 0.00 32 1016.8
20260502110409 25 202 8.0 16.1 0.00 0.00 0.00 34 1016.9
20260502105406 25 261 8.0 19.3 0.00 0.00 0.00 32 1016.9
20260502104406 25 145 8.0 17.7 0.00 0.00 0.00 33 1017.0
20260502103405 24 245 6.4 17.7 0.00 0.00 0.00 32 1017.1
20260502102408 25 174 11.3 27.4 0.00 0.00 0.00 31 1017.3
20260502101406 24 174 6.4 17.7 0.00 0.00 0.00 34 1017.3
20260502100405 24 229 8.0 19.3 0.00 0.00 0.00 35 1017.5
20260502091405 22 161 9.7 16.1 0.00 0.00 0.00 41 1017.8
20260502090405 22 147 9.7 19.3 0.00 0.00 0.00 42 1017.9
20260502071405 18 151 6.4 19.3 0.00 0.00 0.00 53 1018.6
20260502070405 18 164 6.4 17.7 0.00 0.00 0.00 52 1018.7
20260502065405 17 143 4.8 11.3 0.00 0.00 0.00 55 1018.7
20260502064405 16 169 6.4 16.1 0.00 0.00 0.00 57 1018.6
20260502063405 16 170 8.0 16.1 0.00 0.00 0.00 58 1018.6
20260502062405 15 150 4.8 11.3 0.00 0.00 0.00 60 1018.6
20260502061405 15 153 8.0 16.1 0.00 0.00 0.00 59 1018.7
20260502060405 15 156 6.4 12.9 0.00 0.00 0.00 61 1018.7
20260502055405 14 159 8.0 16.1 0.00 0.00 0.00 62 1018.7
20260502054405 13 180 8.0 12.9 0.00 0.00 0.00 62 1018.8
20260502053406 13 170 8.0 16.1 0.00 0.00 0.00 64 1018.7
20260502052406 13 185 8.0 14.5 0.00 0.00 0.00 64 1018.9
20260502051406 12 163 8.0 16.1 0.00 0.00 0.00 66 1018.8
20260502050405 12 164 6.4 11.3 0.00 0.00 0.00 67 1018.9
20260502045405 12 175 6.4 9.7 0.00 0.00 0.00 68 1018.9
20260502044405 11 163 6.4 14.5 0.00 0.00 0.00 69 1018.9
20260502042405 11 162 6.4 11.3 0.00 0.00 0.00 71 1018.9
20260502040405 9 165 4.8 8.0 0.00 0.00 0.00 78 1019.0
20260502035405 8 119 1.6 3.2 0.00 0.00 0.00 79 1019.1
20260502034408 9 152 1.6 3.2 0.00 0.00 0.00 76 1019.1
20260502033405 9 151 3.2 4.8 0.00 0.00 0.00 76 1019.1
20260502032405 9 146 1.6 4.8 0.00 0.00 0.00 76 1019.1
20260502031405 10 151 3.2 6.4 0.00 0.00 0.00 76 1019.3
20260502030405 10 153 3.2 4.8 0.00 0.00 0.00 77 1019.4
20260502025406 9 159 3.2 8.0 0.00 0.00 0.00 78 1019.4
20260502024405 8 160 3.2 6.4 0.00 0.00 0.00 80 1019.4
20260502022405 7 157 3.2 6.4 0.00 0.00 0.00 85 1019.7
20260502021405 7 155 3.2 6.4 0.00 0.00 0.00 85 1019.7
20260502020405 7 146 3.2 6.4 0.00 0.00 0.00 85 1019.8
20260502014405 8 148 3.2 6.4 0.00 0.00 0.00 85 1020.1
20260502013405 8 146 3.2 6.4 0.00 0.00 0.00 85 1020.2
20260502012405 8 147 3.2 4.8 0.00 0.00 0.00 84 1020.3
20260502011408 8 148 1.6 1.6 0.00 0.00 0.00 84 1020.4
20260502005410 9 149 1.6 3.2 0.00 0.00 0.00 82 1020.6
20260502004410 9 148 1.6 3.2 0.00 0.00 0.00 82 1020.7
20260502003410 9 149 1.6 3.2 0.00 0.00 0.00 82 1020.8
20260502001410 10 149 0.0 1.6 0.00 0.00 0.00 79 1021.0
20260502000413 10 149 1.6 3.2 0.00 0.00 0.00 78 1021.0
20260501235410 10 149 0.0 1.6 0.00 0.00 0.00 77 1021.0
20260501234410 11 149 3.2 4.8 0.00 0.00 0.00 73 1021.2
20260501233410 11 150 3.2 4.8 0.00 0.00 0.00 71 1021.2
20260501232410 12 148 1.6 4.8 0.00 0.00 0.00 68 1021.2
20260501231410 13 148 1.6 4.8 0.00 0.00 0.00 67 1021.2
20260501230410 13 148 3.2 4.8 0.00 0.00 0.00 66 1021.3
20260501225411 13 150 4.8 8.0 0.00 0.00 0.00 66 1021.3
20260501224410 13 140 3.2 6.4 0.00 0.00 0.00 66 1021.3
20260501223410 13 130 3.2 6.4 0.00 0.00 0.00 65 1021.4
20260501222410 13 130 4.8 8.0 0.00 0.00 0.00 66 1021.3
20260501221410 13 130 4.8 6.4 0.00 0.00 0.00 67 1021.4
20260501220410 13 119 3.2 4.8 0.00 0.00 0.00 66 1021.4
20260501215410 13 124 3.2 6.4 0.00 0.00 0.00 65 1021.5
20260501214410 14 115 3.2 4.8 0.00 0.00 0.00 63 1021.5
20260501213410 15 116 3.2 4.8 0.00 0.00 0.00 61 1021.5
20260501210410 15 138 4.8 8.0 0.00 0.00 0.00 58 1021.7
20260501204410 15 119 4.8 8.0 0.00 0.00 0.00 60 1021.8
20260501203410 15 123 3.2 8.0 0.00 0.00 0.00 60 1021.8
20260501202410 15 115 3.2 4.8 0.00 0.00 0.00 59 1021.9
20260501201410 16 121 3.2 4.8 0.00 0.00 0.00 58 1022.1
20260501200410 16 122 1.6 3.2 0.00 0.00 0.00 57 1022.1